Regional Weather Roundup
Issued by NWS Green Bay, WI

Home | Current Version | Previous Version | Graphics & Text | Print | Product List | Glossary Off
Versions: 1 2 3 4 5 6 7 8 9 10 11 12 13 14 15 16 17 18 19 20 21 22 23 24 25 26 27 28 29 30 31 32 33 34 35 36 37 38 39 40 41 42 43 44 45 46 47 48 49 50

000
ASUS43 KGRB 251659
RWRGRB

NORTH-CENTRAL AND NORTHEAST WISCONSIN REGIONAL WEATHER ROUNDUP
NATIONAL WEATHER SERVICE GREEN BAY WI
1100 AM CST TUE NOV 25 2014

WIZ005-009-010>012-018-019-251800-
NORTH CENTRAL WISCONSIN

CITY           SKY/WX    TMP DP  RH WIND       PRES   REMARKS
IRONWOOD       CLOUDY    18  14  86 W12       29.94R WCI   5
MANITOWISH WTR NOT AVBL
ARBOR VITAE    NOT AVBL
EAGLE RIVER    NOT AVBL
LAND O LAKES   NOT AVBL
RHINELANDER    CLOUDY    17  10  74 W7        29.94R WCI   8
PHILLIPS       NOT AVBL
ANTIGO         NOT AVBL
TOMAHAWK       NOT AVBL
MERRILL        NOT AVBL
$$

WIZ013-073-251800-
NORTHEAST WISCONSIN

CITY           SKY/WX    TMP DP  RH WIND       PRES   REMARKS
IRON MOUNTAIN  LGT SNOW  22  13  68 NW12      29.92R
MARINETTE      CLOUDY    27  16  63 NW8       29.96R
$$

WIZ017-030-035>037-045-251800-
CENTRAL WISCONSIN

CITY           SKY/WX    TMP DP  RH WIND       PRES   REMARKS
MEDFORD        NOT AVBL
WAUSAU         FLURRIES  19  13  77 W10       29.98R WCI   7
MOSINEE        FLURRIES  18  16  93 W9        30.00R WCI   6
MARSHFIELD     CLOUDY    18   9  68 NW9       30.01R WCI   7
WISC RAPIDS    CLOUDY    18  10  71 W9        30.04R WCI   7
STEVENS POINT  NOT AVBL
WAUPACA        NOT AVBL
SHAWANO        NOT AVBL
CLINTONVILLE   NOT AVBL
$$

WIZ038-039-048-051-251800-
FOX VALLEY

CITY           SKY/WX    TMP DP  RH WIND       PRES   REMARKS
NWS GREEN BAY  CLOUDY    24  16  71 W9        30.00R
APPLETON       CLOUDY    21  18  86 W12       30.01R WCI   9
OSHKOSH        FLURRIES  22  15  75 W12       30.02R
FOND DU LAC    CLOUDY    22  14  71 W12       30.03R
$$

WIZ022-050-052-251800-
EAST CENTRAL WISCONSIN

CITY           SKY/WX    TMP DP  RH WIND       PRES   REMARKS
STURGEON BAY   CLOUDY    27  18  69 NW12      29.96R
MANITOWOC      NOT AVBL
SHEBOYGAN      CLOUDY    24  17  74 W15       30.01R
$$

LMZ563-521-522-541>543-251800-
LAKESHORE

STATION/POSITION TIME  TEMP    WIND        PRES    VSBY  WAVE
                       AIR SEA DIR/SP/G                  HT/PER
                 (UTC) (F)     (DEG/KT/KT) (MB)    (MI)  (FT/S)
SHEBOYGAN LKSHOR 1600   24 36  280/ 13/ 16 1016.9R
KEWAUNEE LKSHORE 1600   25     280/ 11/ 16 1014.1R
TWO RIVERS CG    1600   25                 1015.5      6   1
NORTHPORT PIER   1600   27     300/ 11/ 19 1013.9R
N MID LAKE BUOY  1600   28 42  300/ 21/ 25 1012.4R         5/ 5
SISTER BAY LKSHO 1600          320/ 20/ 22   N/A
STURGEON BAY CG  1600   28      30/  9     1015.8      6   1
CHAMBERS ISLAND  1600   26     300/  7/ 13 1014.2R
MENOMINEE LKSHOR 1600   26     290/ 12/ 16 1015.1R
$$



USA.gov is the U.S. government's official web portal to all federal, state and local government web resources and services.